Location: Haliburton Scout Reserve
(45.0900°N, 78.3200°W)
Time: 13:53:50
(UTC-04:00)

NANOSAT C BR1 - Visible Passes

Search period start: 16 May 2022 00:00
Search period end: 26 May 2022 00:00
Orbit: 584 x 602 km, 98.0° (Epoch: 15 May)

Date Brightness Start Highest point End Pass type
(mag) Time Alt. Az. Time Alt. Az. Time Alt. Az.
16 May ? 03:15:05 10° NNE 03:19:14 74° ESE 03:20:34 41° S visible
16 May ? 04:52:36 10° NW 04:54:13 12° WNW 04:55:50 10° W visible
17 May ? 03:24:03 10° NNE 03:28:13 88° WNW 03:29:43 39° SSW visible
18 May ? 02:00:07 10° ENE 02:01:08 11° E 02:02:09 10° ESE visible
18 May ? 03:33:02 10° N 03:37:11 71° WNW 03:38:50 35° SSW visible
19 May ? 02:08:06 10° ENE 02:10:12 14° E 02:11:21 12° ESE visible
19 May ? 03:42:03 10° N 03:46:07 56° WNW 03:47:57 30° SW visible
20 May ? 02:16:33 10° NE 02:19:15 17° E 02:20:28 15° ESE visible
20 May ? 03:51:04 10° N 03:55:02 45° WNW 03:57:04 25° SW visible
21 May ? 02:25:08 10° NE 02:28:16 21° E 02:29:34 18° ESE visible
21 May ? 04:00:08 10° N 04:03:57 36° WNW 04:06:10 21° WSW visible
22 May ? 02:33:49 10° NE 02:37:17 25° E 02:38:39 21° SE visible
22 May ? 04:09:13 10° N 04:12:50 30° WNW 04:15:16 17° WSW visible
23 May ? 02:42:33 10° NNE 02:46:15 31° E 02:47:44 24° SE visible
23 May ? 04:18:19 10° NNW 04:21:42 25° WNW 04:24:20 14° WSW visible
24 May ? 02:51:20 10° NNE 02:55:14 38° E 02:56:48 27° SE visible
24 May ? 04:27:28 10° NNW 04:30:32 20° WNW 04:33:25 11° WSW visible
25 May ? 03:00:09 10° NNE 03:04:11 48° E 03:05:52 30° SSE visible
25 May ? 04:36:40 10° NNW 04:39:22 17° WNW 04:42:03 10° WSW visible
